This is the latest recevied weather packets stored in our database for station/object KD7JB. If no packets are shown the sender has not sent any weather packets the latest 10 day(s).
| Time | Temp. | Humidity | Pressure | Rain* | Wind** | Luminosity | Snow |
|---|---|---|---|---|---|---|---|
| 1777582287 | 15.56° C | 39% | 1182.5 hPa | 0 mm | - | 750 W/m² | - |
| 1777581985 | 15° C | 40% | 1182.6 hPa | 0 mm | - | 753 W/m² | - |
| 1777581681 | 14.44° C | 38% | 1182.5 hPa | 0 mm | - | 438 W/m² | - |
| 1777581375 | 13.89° C | 42% | 1182.7 hPa | 0 mm | - | 545 W/m² | - |
| 1777581069 | 13.89° C | 41% | 1182.7 hPa | 0 mm | - | 161 W/m² | - |
| 1777580768 | 14.44° C | 41% | 1182.6 hPa | 0 mm | - | 283 W/m² | - |
| 1777580466 | 15° C | 41% | 1182.7 hPa | 0 mm | - | 179 W/m² | - |
| 1777580165 | 15° C | 41% | 1182.8 hPa | 0 mm | - | 879 W/m² | - |
| 1777579863 | 15° C | 42% | 1182.8 hPa | 0 mm | - | 507 W/m² | - |
| 1777579563 | 15° C | 41% | 1182.8 hPa | 0 mm | - | 791 W/m² | - |
| 1777579262 | 15° C | 41% | 1182.8 hPa | 0 mm | - | 777 W/m² | - |
| 1777578958 | 13.89° C | 44% | 1182.8 hPa | 0 mm | - | 480 W/m² | - |
| 1777578653 | 13.89° C | 42% | 1182.8 hPa | 0 mm | - | 169 W/m² | - |
| 1777578352 | 15° C | 40% | 1183.1 hPa | 0 mm | - | 730 W/m² | - |
| 1777578048 | 15° C | 41% | 1183.1 hPa | 0 mm | - | 839 W/m² | - |
| 1777577743 | 15° C | 45% | 1183.1 hPa | 0 mm | - | 849 W/m² | - |
| 1777577440 | 14.44° C | 47% | 1183.3 hPa | 0 mm | - | 351 W/m² | - |
| 1777577138 | 14.44° C | 42% | 1183.2 hPa | 0 mm | - | 172 W/m² | - |
| 1777576834 | 14.44° C | 44% | 1183.3 hPa | 0 mm | - | 744 W/m² | - |
| 1777576532 | 15° C | 44% | 1183.2 hPa | 0 mm | - | 802 W/m² | - |
| 1777576229 | 14.44° C | 43% | 1183.4 hPa | 0 mm | - | 807 W/m² | - |
| 1777575925 | 13.89° C | 45% | 1183.3 hPa | 0 mm | - | 794 W/m² | - |
| 1777575622 | 14.44° C | 45% | 1183.3 hPa | 0 mm | - | 770 W/m² | - |
| 1777575318 | 15° C | 46% | 1183.3 hPa | 0 mm | - | 698 W/m² | - |
| 1777575014 | 14.44° C | 46% | 1183.3 hPa | 0 mm | - | 759 W/m² | - |
* Rain latest hour (hover to see other rain measurements)
** Current wind speed in m/s (hover to see current wind gust speed)